sat.trackr.live / text

‹ back to catalog

TIANYI E

NORAD 64052 · 2025-103E

PAYLOAD ACTIVE UNKNOWN

§ Identity

Operator
Country
PRC
Launch date
2025-05-17
Launch site
JSC
Launch vehicle
Mass (kg)
RCS (m²)

External: N2YO · Heavens-Above · Gunter

§ Orbital elements

Epoch: 2026-09-21T22:41:29.769216Z

Period
94.39 min
Inclination
97.3662°
Eccentricity
0.0003123
Mean motion
15.25625306 rev/d
Perigee alt
486.8 km
Apogee alt
491.1 km
Semi-major
6,867.0 km
B*
3.3323e-4
RAAN
335.8727°
Arg perigee
162.4455°
Mean anomaly
197.6891°
Rev number
7,485

§ Raw data

TIANYI E1 64052U 25103E   26264.94548344  .00008404  00000+0  33323-3 0  99912 64052  97.3662 335.8727 0003123 162.4455 197.6891 15.25625306 74853

JSON: /api/v1/satellites/64052 · /tle

For live sub-satellite position, see the globe view (requires WebGL).

§ Visibility from observer

Set your observer location to see the next 7 days of passes ≥ 10°. The values pass through the URL so the page stays shareable.

No JS? Fill the form by hand. The geolocation button needs JavaScript.

§ Radio — SatNOGS DB

ModeDescriptionDownlinkUplink
FM Mode U - Transmitter 401.250 MHz

1 transmitter · refreshed weekly from db.satnogs.org